Whiting Fld NAS, FL

9:24 AM CST on November 20, 2019 (GMT -0600)
Whiting Field Naval Air Station (North)

Weather History for KNSE - September, 2019

Change the Weather History Date:

Wednesday, September 11, 2019

  Actual Average Record
Temperature  
Mean Temperature 82 °F -  
Max Temperature 96 °F 85 °F 96 °F (2002)
Min Temperature 70 °F 67 °F 59 °F (2011)
Cooling Degree Days 18    
Growing Degree Days 32 (Base 50)    
Moisture  
Dew Point 72 °F    
Average Humidity 79    
Maximum Humidity 100    
Minimum Humidity 38    
Precipitation  
Precipitation 0.00 in - - ()
Sea Level Pressure  
Sea Level Pressure 30.11 in    
Wind  
Wind Speed 3 mph (West)    
Max Wind Speed 9 mph    
Max Gust Speed -    
Visibility 10 miles    
Events      
Averages and records for this station are not official NWS values.
T = Trace of Precipitation, MM = Missing Value Source: NWS Daily Summary

Daily Weather History Graph

Daily Weather History Graph

Search for Another Location

Airport or City:

Astronomy

Sep. 11, 2019 Rise Set
Actual Time 6:30 AM CDT 6:58 PM CDT
Civil Twilight 6:05 AM CDT 7:23 PM CDT
Nautical Twilight 5:37 AM CDT 7:51 PM CDT
Astronomical Twilight 5:08 AM CDT 8:20 PM CDT
Moon 5:58 PM CDT (9/11) 4:07 AM CDT (9/11)
Length of Visible Light 13h 17m
Length of Day
12h 28m
Waxing Gibbous, 95% of the Moon is Illuminated
Sep 11
Waxing Gibbous
Sep 13
Full
Sep 21
Last Quarter
Sep 28
New
Oct 5
First Quarter

Hourly Weather History & Observations

Time (CDT) Temp. Heat Index Dew Point Humidity Pressure Visibility Wind Dir Wind Speed Gust Speed Precip Events Conditions
12:56 AM 73.0 °F - 72.0 °F 96% 30.13 in 10.0 mi Calm Calm - N/A   Clear
1:56 AM 72.0 °F - 71.1 °F 97% 30.12 in 10.0 mi Calm Calm - N/A   Clear
2:56 AM 71.1 °F - 71.1 °F 100% 30.11 in 8.0 mi Calm Calm - N/A   Clear
3:56 AM 70.0 °F - 70.0 °F 100% 30.11 in 8.0 mi Calm Calm - N/A   Clear
4:56 AM 70.0 °F - 70.0 °F 100% 30.12 in 7.0 mi North 3.5 mph - N/A   Clear
5:56 AM 70.0 °F - 70.0 °F 100% 30.13 in 8.0 mi Calm Calm - N/A   Partly Cloudy
6:56 AM 71.1 °F - 71.1 °F 100% 30.15 in 6.0 mi North 3.5 mph - N/A   Partly Cloudy
7:56 AM 77.0 °F - 73.9 °F 90% 30.17 in 10.0 mi Calm Calm - N/A   Partly Cloudy
8:56 AM 82.9 °F 90.2 °F 75.0 °F 77% 30.22 in 10.0 mi Variable 4.6 mph - N/A   Partly Cloudy
9:56 AM 87.1 °F 95.4 °F 73.9 °F 65% 30.18 in 10.0 mi Variable 6.9 mph - N/A   Partly Cloudy
10:56 AM 89.1 °F 98.0 °F 73.9 °F 61% 30.17 in 10.0 mi Variable 6.9 mph - N/A   Scattered Clouds
11:56 AM 89.1 °F 96.0 °F 72.0 °F 57% 30.15 in 10.0 mi Variable 5.8 mph - N/A   Scattered Clouds
12:56 PM 93.0 °F 100.1 °F 71.1 °F 49% 30.13 in 10.0 mi Variable 5.8 mph - N/A   Scattered Clouds
1:56 PM 93.0 °F 97.9 °F 69.1 °F 45% 30.10 in 10.0 mi Variable 3.5 mph - N/A   Mostly Cloudy
2:56 PM 93.0 °F 97.4 °F 68.0 °F 44% 30.07 in 10.0 mi Variable 4.6 mph - N/A   Mostly Cloudy
3:56 PM 95.0 °F 97.9 °F 66.0 °F 38% 30.05 in 10.0 mi East 6.9 mph - N/A   Mostly Cloudy
4:56 PM 91.0 °F 96.6 °F 70.0 °F 50% 30.04 in 10.0 mi SSE 9.2 mph - N/A   Scattered Clouds
5:56 PM 88.0 °F 96.5 °F 73.9 °F 63% 30.04 in 10.0 mi South 8.1 mph - N/A   Scattered Clouds
6:56 PM 84.0 °F 91.9 °F 75.0 °F 74% 30.04 in 10.0 mi South 8.1 mph - N/A   Scattered Clouds
7:56 PM 81.0 °F 86.7 °F 75.0 °F 82% 30.05 in 10.0 mi SW 3.5 mph - N/A   Partly Cloudy
8:56 PM 75.9 °F - 73.9 °F 94% 30.06 in 10.0 mi West 3.5 mph - N/A   Clear
9:56 PM 75.9 °F - 73.9 °F 94% 30.08 in 10.0 mi Calm Calm - N/A   Clear
10:45 PM 73.9 °F - 73.0 °F 97% 30.12 in 10.0 mi Calm Calm - N/A   Clear
10:56 PM 73.0 °F - 73.0 °F 100% 30.07 in 10.0 mi NW 3.5 mph - N/A   Clear
11:56 PM 72.0 °F - 72.0 °F 100% 30.06 in 10.0 mi NNW 3.5 mph - N/A   Clear